STARLINK-2580 (48279 NORAD) Tracking and Keplerian Element Data

This shows tracking and keplerian element data for the satellite.

Feedback or suggestion? Click here.




ElementValue
Catalog48279
NameSTARLINK-2580
Epoch Orbit1589
Epoch Day215.25002315
Epoch Year2021
RAAN51.5395
Inclination53.0504
Eccentricity0.0001609
Argument of Perigee26.042
Mean Anonmoly327.9348
Mean Motion15.73228406
Decay Rate-6.47E-06
L11 48279U 21036D 21215.25002315 -.00000647 00000-0 -18454-6 0 9998
L22 48279 53.0504 51.5395 0001609 26.0420 327.9348 15.73228406 15894

Live tracking and technical data element details for STARLINK-2580 (NORAD 48279). STARLINK-2580 can be tracked NOW for your location showing map with azimuth and elevation plus other details from your city location.

Track the satellite on the map from your city or location and see movement details for azimuth, elevation, latitude, longitude, range, height, and movement on the map or in text.







IsCatalogInMostPopularTable: catalog: 48279, numindb: 30
Update: records affected: 1



GetName: 48279 STARLINK-2580

Hit Count: updated at: Tue, 03 Aug 2021 19:20:27 GMT